Orbital Elements at Epoch 2459200.5 (2020-Dec-17.0) TDB
Reference: JPL 26 (heliocentric ecliptic J2000)
Element | Value | Uncertainty (1-sigma) | Units |
e | .219990460348256 | 4.1056e-08 | |
a | 2.348438528256363 | 6.7554e-09 | au |
q | 1.831804455325665 | 9.6004e-08 | au |
i | 3.039592971878902 | 3.5489e-06 | deg |
node | 133.2632304383054 | 7.6489e-05 | deg |
peri | 255.5120390420716 | 7.6835e-05 | deg |
M | 323.1677862843117 | 7.9876e-06 | deg |
tp | 2459334.990789538350 (2021-Apr-30.49078954) | 2.9414e-05 | TDB |
period | 1314.520072226431 3.60 | 5.6719e-06 1.553e-08 | d yr |
n | .2738642091560156 | 1.1817e-09 | deg/d |
Q | 2.865072601187061 | 8.2415e-09 | au |
|
| | Orbit Determination Parameters
Additional Information
|